Port Angeles, WA

2:52 PM PST on February 09, 2016 (GMT -0800)
Top of Mt. Pleasant Rd. | | Change Station
CLOSE
Current Station
Personal Weather Station
Location: Port Angeles, WA
Elevation: 1237 ft
Nearby Weather Stations

Elev 1237 ft 48.04 °N, 123.36 °W | Updated 0 second ago

Partly Cloudy
Partly Cloudy
52.7 °F
Feels Like 52.7 °F
N
0.0
Wind Variable Wind from SSW
Gusts 0.0 mph

Today
High -- | Low -- °F
--% Chance of Precip.
Yesterday
High -- | Low -- °F
Precip. -- in
Pressure 30.14 in
Visibility 9.0 miles
Clouds Clear
Dew Point 44 °F
Humidity 71%
Rainfall 0.00 in
Snow Depth Not available.
7:29 AM 5:25 PM
New Moon, 2% visible
METAR KCLM 092153Z AUTO 02004KT 9SM CLR 10/07 A3014 RMK AO2 SLP207 T01000067
Pressure 30.14 in
Visibility 9.0 miles
Clouds Clear
Dew Point 44 °F
Humidity 71%
Rainfall 0.00 in
Snow Depth Not available.
7:29 AM 5:25 PM
New Moon, 2% visible
METAR KCLM 092153Z AUTO 02004KT 9SM CLR 10/07 A3014 RMK AO2 SLP207 T01000067

10-Day Weather Forecast

Almanac

Astronomy

Feb. 09, 2016 Rise Set
Actual Time
Civil Twilight
Nautical Twilight
Astronomical Twilight
Moon
Length of Visible Light
Length of Day
Tomorrow will be .
, % of the Moon is Illuminated

Today's Extremes

State Highs State Lows

Community

WunderPhotos

Upload Photos

1,891,725 photos uploaded!

WunderBlog® & News

Nearby

Air Quality

  Air Quality AQ Index Pollutant
Not available.

Snow Depth

Station Depth Elevation

Earthquake Activity

City Distance Mag. Time & Date
Minimum magnitude displayed is 2.5.

Coastal Water Temperatures

Place Temperature

Stations

Nearby Weather Stations

Station Location Temp. Windchill Dew Point Humidity Wind Precip. Elev Updated Type
                   

Watches & Warnings

There are currently no watches in effect.